Tracking 18957 objects as of 23-Jan-2018
HD Live streaming from Space Station
objects crossing your sky now

NOVA 3

Track NOVA 3 now!
10-day predictions
NOVA 3 is classified as:


NORAD ID: 15362
Int'l Code: 1984-110A
Perigee: 1,157.5 km
Apogee: 1,205.2 km
Inclination: 90.0 °
Period: 108.9 minutes
Semi major axis: 7552 km
RCS: 1.829 m2 (large)
Launch date: October 12, 1984
Source: United States (US)
Launch site: AIR FORCE WESTERN TEST RANGE (AFWTR)
aabbcc
Your satellite tracking list
Your tracking list is empty




NASA's NSSDC Master Catalog

Two Line Element Set (TLE):
1 15362U 84110A   18022.63786615 +.00000009 +00000-0 +37567-6 0  9999
2 15362 090.0476 055.8534 0031581 353.0969 126.5568 13.22743430606080
Source of the keplerian elements: AFSPC